Flight Briefing for CPX238

Departure Arrival
Luis Munoz Marin International Airport (TJSJ)
Click to view FAA NOTAMS
Miami International Airport (KMIA)
Click to view FAA NOTAMS
Departure Time Arrival Time
N/A N/A
Aircraft Distance
B767-300BDSF 909nm
Departure METAR Arrival METAR
TJSJ 271056Z 00000KT 10SM FEW028 SCT046 BKN070 27/23 A2997 RMK AO2 SLP146 SHRA DSNT E T02670233 $ KMIA 271053Z 07007KT 10SM FEW024 26/20 A3005 RMK AO2 SLP175 T02610200
Suggested Route
ACONY3 PALDE FEKKO Y308 FOWEE FLIPR6


View recent IFR Routes data
Notes



Charts and Procedures

Charts for TJSJ
No chart available
Charts for KMIA
No chart available

Windy.com Weather Map